[[{"header":{"parameterUnit":"m.s-1","parameterCategory":1,"la1":30.2991,"la2":30.254,"lo1":-89.0895,"lo2":-89.0444,"dy":0.0017,"dx":0.0017,"nx":28,"ny":28,"refTime":"2024-03-07T03:00:00:Z","depth":0,"parameterNumber":2,"parameterNumberName":"U-component_of_WINDS"},"data":[0,0,0,0,0,0,0,0,0,0,0,0,0,0,0,0,0,0,0,0,0,0,0,0,0,0,0,0,0,0,0,0,0,0,0,0,0,0,0,0,0,0,0,0,0,0,0,0,0,0,0,0,0,0,0,0,0,0,-2.548,-2.5481,0,-2.5582,-2.5583,-2.5584,-2.5642,-2.5642,-2.5642,-2.5643,-2.5746,-2.5748,-2.5751,0,0,0,0,0,0,0,0,0,0,0,0,0,-2.5334,-2.5336,-2.548,-2.5481,-2.5483,-2.5582,-2.5583,-2.5585,-2.5642,-2.5642,-2.5642,-2.5643,-2.5745,-2.5748,-2.5751,0,0,0,0,0,0,0,0,0,0,0,0,0,-2.5413,-2.5337,-2.548,-2.5523,-2.5528,-2.5582,-2.5583,-2.5585,-2.5642,-2.5642,-2.5643,-2.5643,-2.5744,-2.5747,-2.5751,-2.5769,0,0,-2.5763,-2.5765,0,0,0,0,0,0,0,0,-2.5408,-2.5418,-2.5516,-2.552,-2.5526,-2.56,-2.557,-2.5647,-2.5642,-2.5599,-2.5643,-2.5643,-2.5697,-2.5704,-2.5723,-2.5774,-2.5778,-2.5763,-2.5766,-2.5767,-2.5768,0,0,0,0,0,0,0,-2.5403,-2.5414,-2.552,-2.5517,-2.5523,-2.5537,-2.5549,-2.5585,-2.5645,-2.5602,-2.5607,-2.5618,-2.57,-2.5719,-2.5726,-2.578,-2.5763,-2.5767,-2.5769,-2.5771,-2.5852,-2.5851,0,0,0,0,0,0,-2.539,-2.5409,-2.5517,-2.5523,-2.5467,-2.554,-2.5553,-2.5576,-2.5645,-2.5655,-2.5618,-2.5621,-2.5712,-2.5721,-2.573,-2.5755,-2.5767,-2.5771,-2.5773,-2.5852,-2.5852,-2.5851,0,0,0,0,0,0,-2.5387,-2.54,-2.5513,-2.5468,-2.5483,-2.5542,-2.5567,-2.5578,-2.5597,-2.5656,-2.5667,-2.5627,-2.5713,-2.5724,-2.5759,-2.576,-2.5773,-2.5776,-2.5852,-2.5852,-2.5851,-2.5807,0,0,0,0,0,0,-2.5383,-2.5398,-2.5405,-2.5467,-2.5485,-2.5541,-2.5567,-2.5579,-2.5604,-2.5608,-2.5667,-2.5678,-2.5714,-2.5753,-2.5763,-2.5765,-2.5779,-2.5852,-2.5852,-2.5852,-2.5808,-2.5805,-2.5802,0,0,0,0,0,-2.5377,-2.5388,-2.5406,-2.5418,-2.5496,-2.5541,-2.5551,-2.5593,-2.5603,-2.5611,-2.565,-2.5676,-2.5758,-2.5756,-2.5768,-2.5771,-2.5852,-2.5852,-2.5852,-2.581,-2.5805,-2.5802,0,0,0,0,0,0,-2.5324,-2.5397,-2.5417,-2.5449,-2.5488,-2.555,-2.5562,-2.5587,-2.5624,-2.5627,-2.5677,-2.569,-2.572,-2.575,-2.5746,-2.5793,-2.5808,-2.581,-2.5772,-2.5769,-2.5766,-2.5758,-2.5782,0,0,0,0,0,-2.5316,-2.5347,-2.5409,-2.5431,-2.545,-2.5502,-2.5523,-2.5553,-2.5595,-2.5612,-2.5653,-2.5693,-2.5728,-2.575,-2.5786,-2.5813,-2.5827,-2.5821,-2.5818,-2.5815,-2.5816,-2.5833,-2.5831,-2.585,-2.585,-2.585,0,0,-2.53,-2.5344,-2.536,-2.5421,-2.5455,-2.5486,-2.5516,-2.5547,-2.557,-2.5617,-2.5652,-2.5684,-2.5732,-2.5763,-2.5779,-2.5788,-2.5814,-2.5815,-2.5812,-2.5815,-2.5833,-2.5831,-2.5829,-2.585,-2.585,-2.585,0,0,-2.5285,-2.5322,-2.5344,-2.5378,-2.543,-2.5465,-2.547,-2.5529,-2.5552,-2.5588,-2.5625,-2.5653,-2.5712,-2.5745,-2.577,-2.5769,-2.5795,-2.578,-2.5763,-2.5779,-2.5777,-2.5776,-2.5776,-2.5775,-2.578,-2.578,-2.578,0,-2.5258,-2.5306,-2.5352,-2.5381,-2.5407,-2.5452,-2.5475,-2.5506,-2.5566,-2.5583,-2.5592,-2.5669,-2.5704,-2.5744,-2.5744,-2.5763,-2.577,-2.5773,-2.5774,-2.5773,-2.5773,-2.5773,-2.5773,-2.5778,-2.5778,-2.5779,-2.5779,0,-2.527,-2.5303,-2.5314,-2.5372,-2.54,-2.5425,-2.5475,-2.5497,-2.5525,-2.5559,-2.5596,-2.5641,-2.5686,-2.5698,-2.5724,-2.5742,-2.5746,-2.5764,-2.5781,-2.5768,-2.5769,-2.577,-2.5775,-2.5776,-2.5776,-2.5777,0,0,-2.5224,-2.5308,-2.5311,-2.5338,-2.5399,-2.5425,-2.5453,-2.5498,-2.5517,-2.5557,-2.5582,-2.5632,-2.5649,-2.5677,-2.5708,-2.5722,-2.5719,-2.5739,-2.5741,-2.5733,-2.5741,-2.5727,-2.5726,-2.5737,-2.5737,-2.5737,-2.5737,0,-2.5218,-2.527,-2.5313,-2.535,-2.538,-2.5424,-2.5449,-2.5489,-2.5522,-2.5553,-2.5589,-2.5623,-2.5644,-2.5661,-2.5677,-2.5716,-2.5721,-2.5717,-2.576,-2.5761,-2.5746,-2.5727,-2.5711,-2.5709,-2.5738,-2.5738,-2.5738,0,-2.5217,-2.5257,-2.5296,-2.5355,-2.537,-2.5391,-2.5436,-2.5465,-2.5512,-2.5535,-2.5566,-2.5599,-2.5631,-2.5645,-2.5689,-2.5685,-2.5706,-2.5728,-2.5729,-2.5734,-2.5748,-2.5731,-2.5709,-2.5709,-2.5739,-2.5739,-2.5739,0,-2.5179,-2.5242,-2.5274,-2.5296,-2.5365,-2.5379,-2.5409,-2.5456,-2.548,-2.552,-2.5537,-2.558,-2.5603,-2.5635,-2.5679,-2.5685,-2.5719,-2.5736,-2.5739,-2.5737,-2.5743,-2.5742,-2.5724,-2.5757,-2.5757,-2.5757,-2.5757,0,-2.5167,-2.5189,-2.5258,-2.5277,-2.5304,-2.5354,-2.5379,-2.5412,-2.5454,-2.548,-2.5521,-2.5546,-2.5602,-2.5633,-2.5667,-2.5699,-2.5709,-2.5729,-2.5737,-2.5725,-2.5722,-2.5738,-2.5739,-2.5757,-2.5757,-2.5757,-2.5757,0,-2.5128,-2.5175,-2.5213,-2.5276,-2.5292,-2.5309,-2.5363,-2.5384,-2.542,-2.5453,-2.5464,-2.552,-2.5559,-2.5606,-2.566,-2.5683,-2.5711,-2.5725,-2.5696,-2.5701,-2.57,-2.5699,-2.5691,-2.5693,-2.5725,-2.5724,-2.5724,0,-2.5117,-2.5135,-2.5201,-2.5222,-2.525,-2.5284,-2.531,-2.536,-2.5385,-2.544,-2.5454,-2.5497,-2.5533,-2.5593,-2.5639,-2.5681,-2.5695,-2.569,-2.5701,-2.5688,-2.5695,-2.5693,-2.5695,-2.5686,-2.5685,-2.5685,-2.5684,0,-2.5092,-2.5115,-2.515,-2.5195,-2.5225,-2.5262,-2.5301,-2.5316,-2.5374,-2.54,-2.5441,-2.5469,-2.5525,-2.5567,-2.5615,-2.5645,-2.5674,-2.568,-2.5683,-2.567,-2.5652,-2.5661,-2.5686,-2.568,-2.568,-2.5681,-2.5681,-2.5681,-2.5066,-2.5085,-2.5134,-2.5173,-2.5208,-2.5243,-2.5266,-2.5306,-2.5341,-2.539,-2.5418,-2.5458,-2.5505,-2.5573,-2.5602,-2.5635,-2.5645,-2.5649,-2.565,-2.5649,-2.5646,-2.5648,-2.5644,-2.5644,-2.5644,-2.5644,-2.5644,0,-2.5043,-2.5077,-2.5113,-2.5166,-2.5197,-2.5223,-2.5268,-2.5292,-2.5326,-2.5368,-2.5404,-2.5451,-2.5492,-2.5542,-2.5586,-2.5602,-2.5617,-2.5612,-2.5611,-2.5618,-2.5634,-2.5627,-2.56,-2.56,-2.56,-2.56,-2.56,-2.56,-2.5034,-2.5067,-2.5096,-2.5147,-2.5181,-2.5221,-2.5245,-2.5278,-2.5312,-2.5363,-2.5397,-2.543,-2.5475,-2.5523,-2.5562,-2.5576,-2.559,-2.5581,-2.5598,-2.5613,-2.5616,-2.562,-2.5614,-2.5584,-2.5584,-2.558,-2.558,-2.5579]},{"header":{"parameterUnit":"m.s-1","parameterCategory":1,"la1":30.2991,"la2":30.254,"lo1":-89.0895,"lo2":-89.0444,"dy":0.0017,"dx":0.0017,"nx":28,"ny":28,"refTime":"2024-03-07T03:00:00:Z","depth":0,"parameterNumber":3,"parameterNumberName":"V-component_of_WINDS"},"data":[0,0,0,0,0,0,0,0,0,0,0,0,0,0,0,0,0,0,0,0,0,0,0,0,0,0,0,0,0,0,0,0,0,0,0,0,0,0,0,0,0,0,0,0,0,0,0,0,0,0,0,0,0,0,0,0,0,0,5.0639,5.064,0,5.0745,5.0746,5.0747,5.075,5.0749,5.0748,5.0746,5.085,5.0854,5.0858,0,0,0,0,0,0,0,0,0,0,0,0,0,5.0435,5.0438,5.0639,5.064,5.0641,5.0745,5.0746,5.0748,5.075,5.0749,5.0747,5.0746,5.0849,5.0854,5.0858,0,0,0,0,0,0,0,0,0,0,0,0,0,5.053,5.044,5.0638,5.0655,5.0658,5.0745,5.0746,5.0748,5.0751,5.0749,5.0747,5.0745,5.0847,5.0853,5.0859,5.0935,0,0,5.0877,5.088,0,0,0,0,0,0,0,0,5.0525,5.0538,5.0651,5.0654,5.0657,5.0733,5.0713,5.0811,5.0751,5.0715,5.0746,5.0744,5.0812,5.0821,5.0845,5.094,5.0944,5.0878,5.0881,5.0884,5.0886,0,0,0,0,0,0,0,5.0518,5.0533,5.0681,5.0653,5.0657,5.0656,5.0668,5.0731,5.0773,5.0718,5.0719,5.0732,5.0813,5.0839,5.0847,5.0946,5.0878,5.0883,5.0887,5.0889,5.1111,5.1113,0,0,0,0,0,0,5.0509,5.0528,5.0677,5.0684,5.0585,5.0662,5.0674,5.071,5.0773,5.078,5.0733,5.0731,5.083,5.0841,5.0851,5.0947,5.0884,5.0889,5.0893,5.1108,5.1111,5.1114,0,0,0,0,0,0,5.0504,5.0522,5.0673,5.0606,5.0625,5.0667,5.0707,5.0713,5.0739,5.0784,5.0791,5.0752,5.0829,5.0843,5.0915,5.095,5.0892,5.0898,5.1106,5.1109,5.1112,5.1137,0,0,0,0,0,0,5.0499,5.0521,5.055,5.0607,5.0629,5.0736,5.0709,5.0717,5.075,5.0749,5.0804,5.0811,5.0828,5.0906,5.0921,5.0958,5.0902,5.1103,5.1107,5.1111,5.1133,5.1141,5.1148,0,0,0,0,0,5.0491,5.0551,5.0552,5.057,5.0667,5.0738,5.0751,5.0772,5.0753,5.0783,5.0812,5.0809,5.0943,5.0913,5.093,5.0969,5.11,5.1106,5.1111,5.113,5.1139,5.1147,0,0,0,0,0,0,5.0496,5.0559,5.056,5.0641,5.0684,5.0739,5.0777,5.078,5.0829,5.0825,5.0847,5.0859,5.0932,5.0957,5.0923,5.1047,5.102,5.1028,5.1029,5.1038,5.1045,5.1038,5.0907,0,0,0,0,0,5.0506,5.056,5.0612,5.0677,5.07,5.0735,5.0766,5.0779,5.0824,5.0842,5.0876,5.0919,5.0972,5.1006,5.1056,5.1136,5.1149,5.1171,5.1178,5.1184,5.1192,5.1239,5.125,5.1131,5.1131,5.113,0,0,5.0528,5.057,5.0602,5.068,5.0715,5.077,5.075,5.0808,5.0849,5.085,5.0923,5.0949,5.0998,5.1076,5.1111,5.1099,5.1228,5.119,5.1194,5.12,5.1246,5.1257,5.1267,5.1134,5.1134,5.1133,0,0,5.0598,5.0633,5.0694,5.073,5.0785,5.0809,5.0823,5.0877,5.0896,5.0969,5.0972,5.1019,5.1108,5.1145,5.1175,5.126,5.1259,5.1275,5.1313,5.1359,5.1368,5.1377,5.141,5.1421,5.1282,5.1282,5.1282,0,5.0618,5.0702,5.0724,5.0784,5.0819,5.0824,5.0886,5.092,5.0987,5.1011,5.0996,5.111,5.1143,5.1231,5.1252,5.1275,5.1293,5.127,5.1365,5.1374,5.1382,5.1414,5.1426,5.1284,5.1284,5.1284,5.1283,0,5.0726,5.0784,5.0826,5.0895,5.0934,5.0994,5.1025,5.1061,5.107,5.1095,5.117,5.121,5.1271,5.1291,5.1299,5.1381,5.1372,5.1361,5.1334,5.1395,5.1426,5.1438,5.1287,5.1286,5.1285,5.1285,0,0,5.0801,5.0883,5.0898,5.0931,5.0993,5.1038,5.1098,5.1159,5.1192,5.1237,5.129,5.1366,5.1357,5.1391,5.1403,5.1443,5.1511,5.1427,5.1428,5.1444,5.1607,5.1617,5.1631,5.151,5.1513,5.1514,5.1604,0,5.088,5.0991,5.1013,5.1108,5.1164,5.117,5.1223,5.1267,5.1291,5.1341,5.1367,5.1422,5.1404,5.1426,5.1465,5.1495,5.1545,5.1488,5.156,5.1562,5.1551,5.1647,5.1657,5.174,5.1616,5.1617,5.1619,0,5.0986,5.1039,5.1141,5.1198,5.1222,5.127,5.1329,5.1376,5.1425,5.144,5.148,5.1488,5.1551,5.152,5.1608,5.1569,5.1599,5.1618,5.1622,5.1631,5.1597,5.1662,5.1766,5.178,5.1637,5.1636,5.1635,0,5.1036,5.1131,5.1206,5.1233,5.13,5.1334,5.1363,5.1411,5.1447,5.1497,5.1521,5.1577,5.1609,5.1652,5.1675,5.165,5.1762,5.1732,5.1778,5.1778,5.1803,5.1802,5.1917,5.1818,5.1817,5.1817,5.1817,0,5.1123,5.1186,5.123,5.1276,5.1347,5.1371,5.144,5.1468,5.1511,5.1562,5.1569,5.1617,5.1643,5.1695,5.1713,5.1785,5.1797,5.1812,5.1817,5.1814,5.1812,5.1836,5.1832,5.1821,5.182,5.1819,5.1819,0,5.1191,5.1222,5.1305,5.1363,5.1379,5.1429,5.1478,5.1523,5.1548,5.1613,5.1629,5.1668,5.1729,5.1756,5.183,5.1843,5.1926,5.1924,5.191,5.1913,5.1958,5.1955,5.2095,5.2116,5.1999,5.2,5.2001,0,5.1246,5.1295,5.136,5.1396,5.1427,5.1485,5.1523,5.1548,5.1587,5.1648,5.1686,5.1748,5.1799,5.1896,5.1931,5.1988,5.199,5.2035,5.1999,5.1995,5.1995,5.1993,5.1999,5.2043,5.2044,5.2045,5.2045,0,5.1342,5.1356,5.1411,5.1473,5.1519,5.1568,5.1616,5.1645,5.1677,5.1721,5.1785,5.1825,5.1903,5.1965,5.2025,5.2054,5.2056,5.2057,5.2071,5.207,5.2061,5.207,5.1932,5.2054,5.2053,5.2052,5.2052,5.2052,5.1407,5.1453,5.1507,5.1569,5.1608,5.1653,5.17,5.1732,5.1786,5.1854,5.1864,5.1933,5.1982,5.2064,5.2095,5.2149,5.2138,5.2157,5.2163,5.2168,5.2173,5.205,5.2159,5.2159,5.2159,5.2159,5.2158,0,5.1506,5.1542,5.1599,5.1668,5.1717,5.1716,5.1769,5.181,5.1872,5.1918,5.197,5.2045,5.2105,5.2145,5.2206,5.2242,5.2244,5.2257,5.2256,5.2263,5.2178,5.2161,5.2254,5.2254,5.2254,5.2254,5.2254,5.2254,5.1564,5.1642,5.1663,5.176,5.1794,5.1865,5.1896,5.1938,5.1976,5.206,5.2111,5.2137,5.2181,5.2246,5.2302,5.2312,5.2335,5.2349,5.2359,5.2279,5.2269,5.2259,5.2244,5.2353,5.2353,5.2441,5.2441,5.2442]}]]